Tracking 30136 objects as of 8-Feb-2025
HD Live streaming from Space Station
objects crossing your sky now

BREEZE-M R/B

Track BREEZE-M R/B now!


NORAD ID: 39123
Int'l Code: 2013-012B
Perigee: 5,239.9 km
Apogee: 34,298.6 km
Inclination: 17.5 °
Period: 701.0 minutes
Semi major axis: 26140 km
RCS: 0.6198 m2 (medium)
Launch date: March 26, 2013
Source: Commonwealth of Independent States (former USSR) (CIS)
Launch site: TYURATAM MISSILE AND SPACE COMPLEX (TTMTR)

Note: This is a ROCKET BODY
Your satellite tracking list
Your tracking list is empty




NASA's NSSDC Master Catalog

Two Line Element Set (TLE):
1 39123U 13012B   25038.04049301  .00000044  00000-0  00000-0 0  9992
2 39123  17.5242 219.0958 5558222  63.5843 342.4196  2.05417447 89025
Source of the keplerian elements: AFSPC